Weather in Corinth

Greece     37°56′16″N   22°55′55″E
temp.,
°C
wind,
m/s
gust,
m/s
humid.,
%
clouds,
%
prec.,
mm/h
press.,
hPa
HPBL,
m
17 may, mon
mon1700:00+17wnw49718 0.0 1011295
03:00+16wnw367394 0.0 1011237
06:00+15wnw46775 0.0 1011211
09:00+19wnw34545 0.0 1011371
12:00+22wnw33435 0.0 1011641
15:00+23w474039 0.0 1011583
18:00+23wnw6114223 0.0 1010409
21:00+19wnw6116236 0.0 1010304
18 may, tue
tue1800:00+18wnw376898 0.0 1010161
03:00+18wnw3763100 0.0 1010159
06:00+17nw3463100 0.0 101067
09:00+21wnw4553100 0.0 1011362
12:00+23w594637 0.0 1011495
15:00+25nw813376 0.0 1010602
18:00+24nw713360 0.0 1011481
21:00+21nw611470 0.0 1012278
19 may, wed
wed1900:00+18wnw2660100 0.0 1014120
03:00+17w2254100 0.0 101420
06:00+16wnw225366 0.0 101416
09:00+21nw233998 0.0 1015282
12:00+26nnw22285 0.0 1014762
15:00+28se12274 0.0 1012992
18:00+26w26270 0.0 1011805
21:00+20w38470 0.0 1011222
20 may, thu
thu2000:00+18wnw24670 0.0 101168
03:00+18wnw49615 0.0 1010303
06:00+17nw34635 0.0 101091
09:00+20wnw474873 0.0 1010461
12:00+23wnw7104184 0.0 1010582
15:00+24wnw812346 0.0 1009604
18:00+21nw81242100 0.0 1009474
21:00+19wnw81259100 0.0 1009449
21 may, fri
fri2100:00+17wnw610757 0.0 1010442
03:00+17wnw710715 0.0 1009514
06:00+16wnw68715 0.0 1009432
09:00+17nw446369 0.0 1010834
12:00+18nne555298 0.4 10101128
15:00+16nne7106019 0.5 1012914
18:00+16nnw35547 0.0 1012965
21:00+14wnw11645 0.0 101394